Location: Lawrence
(38.9720°N, 95.2350°W)
Time: 07:50:01
(UTC-06:00)

JAS-1B - Visible Passes

Search period start: 11 December 2016 00:00
Search period end: 21 December 2016 00:00
Orbit: 911 x 1744 km, 99.0° (Epoch: 10 December)

Date Brightness Start Highest point End Pass type
(mag) Time Alt. Az. Time Alt. Az. Time Alt. Az.
11 Dec 9.6 03:08:44 10° ESE 03:10:12 15° ESE 03:10:12 15° ESE visible
11 Dec 8.1 04:57:58 10° S 05:02:26 34° SSW 05:02:26 34° SSW visible
11 Dec 9.1 18:33:49 10° NNW 18:38:25 24° WNW 18:43:27 10° WSW visible
12 Dec 9.3 03:26:58 10° SE 03:29:11 20° ESE 03:29:11 20° ESE visible
12 Dec 8.4 05:17:40 10° SSW 05:21:25 26° SW 05:21:25 26° SW visible
12 Dec 9.4 18:53:31 10° NNW 18:57:14 17° WNW 19:01:11 10° W visible
13 Dec 9.0 03:45:29 10° SE 03:48:10 24° SE 03:48:10 24° SE visible
13 Dec 8.7 05:37:46 10° SW 05:40:24 18° SW 05:40:24 18° SW visible
13 Dec 7.3 17:19:59 10° NNE 17:25:58 85° WNW 17:32:56 10° SSW visible
13 Dec 9.7 19:13:53 10° NW 19:15:58 12° WNW 19:18:07 10° W visible
14 Dec 8.7 04:04:13 10° SSE 04:07:10 27° SSE 04:07:10 27° SSE visible
14 Dec 9.0 05:58:32 10° SW 05:59:24 12° WSW 05:59:24 12° WSW visible
14 Dec 7.7 17:39:04 10° N 17:44:58 61° WNW 17:51:47 10° SSW visible
15 Dec 8.6 04:23:13 10° S 04:26:10 27° S 04:26:10 27° S visible
15 Dec 8.3 17:58:14 10° N 18:03:54 43° WNW 18:10:24 10° SW visible
16 Dec 8.6 04:42:27 10° S 04:45:10 24° S 04:45:10 24° S visible
16 Dec 8.9 18:17:34 10° N 18:22:49 31° WNW 18:28:44 10° SW visible
17 Dec 8.8 05:01:59 10° SSW 05:04:11 20° SSW 05:04:11 20° SSW visible
17 Dec 9.3 18:37:03 10° NNW 18:41:40 23° WNW 18:46:47 10° WSW visible
18 Dec 9.6 03:30:28 10° SE 03:30:58 12° SE 03:30:58 12° SE visible
18 Dec 9.0 05:21:49 10° SSW 05:23:12 15° SW 05:23:12 15° SW visible
18 Dec 9.5 18:56:50 10° NNW 19:00:28 16° WNW 19:04:23 10° W visible
19 Dec 9.4 03:49:03 10° SSE 03:49:58 14° SSE 03:49:58 14° SSE visible
19 Dec 9.2 05:42:10 10° SW 05:42:13 10° SW 05:42:13 10° SW visible
19 Dec 7.6 17:23:04 10° N 17:29:19 76° WNW 17:36:42 10° SSW visible
19 Dec 9.8 19:17:26 10° NW 19:19:12 11° WNW 19:21:02 10° WNW visible
20 Dec 9.2 04:07:53 10° SSE 04:09:00 16° SSE 04:09:00 16° SSE visible
20 Dec 8.1 17:42:11 10° N 17:48:17 55° WNW 17:55:29 10° SSW visible
